STARLINK-2263 (48003 NORAD) Tracking and Keplerian Element Data

This shows tracking and keplerian element data for the satellite.

Feedback or suggestion? Click here.




ElementValue
Catalog48003
NameSTARLINK-2263
Epoch Orbit1514
Epoch Day173.89568188
Epoch Year2021
RAAN140.779
Inclination53.0336
Eccentricity0.0001318
Argument of Perigee63.1132
Mean Anonmoly296.9991
Mean Motion15.04759686
Decay Rate1.88E-06
L11 48003U 21024AC 21173.89568188 .00000188 00000-0 32605-4 0 9998
L22 48003 53.0336 140.7790 0001318 63.1132 296.9991 15.04759686 15141

Live tracking and technical data element details for STARLINK-2263 (NORAD 48003). STARLINK-2263 can be tracked NOW for your location showing map with azimuth and elevation plus other details from your city location.

Track the satellite on the map from your city or location and see movement details for azimuth, elevation, latitude, longitude, range, height, and movement on the map or in text.







IsCatalogInMostPopularTable: catalog: 48003, numindb: 42
Update: records affected: 1



GetName: 48003 STARLINK-2263

Hit Count: updated at: Thu, 24 Jun 2021 03:22:28 GMT